COSMOS 708

Satellite information

Favourite Embed

Satellite Type and Status

PAYLOADIN ORBIT

Key statistics

Satellite COSMOS 708 at a glance.

Uptime

18575

Days in orbit

Revolutions

≈ 12.7

Per day

Orbit

LEO

Low Earth Orbit

Inclination

69.2

Latest

Satellite identification and parameters

Extended collection of information and parameters for COSMOS 708.

Object identification

Identified? True

Debris? False

Object name: COSMOS 708

International designator: 1975-012A

Object number (NORAD): 7663

Object ID (CCSDS): 7663

Country: COMMONWEALTH OF INDEPENDENT STATES (CIS)

Current information (Y/N): Y

RCS size: LARGE

Orbital parameters

Period: 113.538 minutes

Inclination: 69.2341 deg

SMA: 7767.013 km

Apoapsis: 1410.378 km

Periapsis: 1367.379 km

RAAN: 43.0089 deg

Eccentricy: 0.00276806

Argument of periapsis: 274.2517 deg

Mean anomaly: 191.8073 deg

Mean motion: 12.68299146 rev/day

Mean motion (dot): -0.00000023 rev/day2

B* drag term: 0.000094135645 1/REarth

Two-line elements (TLE)

Creation date: Dec. 20, 2025, 5:42 p.m.

Reference frame: TEME

Reference center: EARTH

Epoch: Dec. 20, 2025, 12:12 p.m. UTC

TLE line 0: 0 COSMOS 708

TLE line 1: 1 07663U 75012A 25354.50897274 -.00000023 00000-0 94136-4 0 9991

TLE line 2: 2 07663 69.2341 43.0089 0027681 274.2517 191.8073 12.68299146354879

Live tracking on map

Real-time ground track for satellite COSMOS 708.

In-orbit conjunctions

A list of the most updated potential collisions computed for object COSMOS 708.

Target Orbit TCA Probability of collision Miss distance Type
COSMOS 645 LEO 2025-02-26 08:26:17 0.0003020787 238.0 (m) PAYLOAD

Associated space launch

High resolution optical reconnaissance satellite of the Vostok-based Zenit family.

COSMOS 708 was lifted into orbit during the mission ‘Voskhod | Zenit-4MK 36’, on board a Voskhod space rocket.

The launch took place on Feb. 12, 1975, 2:30 p.m. from 41/1.

For more information about the launch, click the button.

Launch to space Voskhod | Zenit-4MK 36
Voskhod | Zenit-4MK 36

Agency: N/A

Status: Launch Successful

Launch date: Feb. 12, 1975, 2:30 p.m. UTC

Rocket: Voskhod

Launch pad: 41/1

Location: Plesetsk Cosmodrome, Russian Federation

...

Latest news about this satellite

There are no fresh news available about this satellite. Check back as we update our databases every day.


Newsletter sign-up

Weekly statistics, charts and insights to help you stay on top of the space industry.